[[{"header":{"parameterUnit":"m.s-1","parameterCategory":1,"la1":30.2991,"la2":30.254,"lo1":-89.0895,"lo2":-89.0444,"dy":0.0017,"dx":0.0017,"nx":28,"ny":28,"refTime":"2024-05-13T03:00:00:Z","depth":0,"parameterNumber":2,"parameterNumberName":"U-component_of_WINDS"},"data":[0,0,0,0,0,0,0,0,0,0,0,0,0,0,0,0,0,0,0,0,0,0,0,0,0,0,0,0,0,0,0,0,0,0,0,0,0,0,0,0,0,0,0,0,0,0,0,0,0,0,0,0,0,0,0,0,0,0,1.5226,1.5227,0,1.5371,1.5372,1.5374,1.5438,1.5438,1.5437,1.5437,1.5592,1.5596,1.5601,0,0,0,0,0,0,0,0,0,0,0,0,0,1.5011,1.5015,1.5225,1.5227,1.5229,1.537,1.5373,1.5375,1.5438,1.5438,1.5437,1.5437,1.5591,1.5596,1.5601,0,0,0,0,0,0,0,0,0,0,0,0,0,1.5125,1.5016,1.5225,1.5277,1.5284,1.537,1.5373,1.5375,1.5438,1.5438,1.5437,1.5437,1.5589,1.5595,1.5602,1.5649,0,0,1.5622,1.5624,0,0,0,0,0,0,0,0,1.5119,1.5133,1.5268,1.5274,1.5281,1.5386,1.5354,1.5467,1.5438,1.538,1.5437,1.5437,1.5524,1.5536,1.5564,1.5656,1.5663,1.5622,1.5626,1.5629,1.5631,0,0,0,0,0,0,0,1.5111,1.5127,1.5283,1.527,1.5278,1.5297,1.5312,1.5376,1.5452,1.5385,1.539,1.5406,1.5528,1.5558,1.5568,1.5665,1.5622,1.5628,1.5632,1.5634,1.5807,1.5807,0,0,0,0,0,0,1.5093,1.512,1.5279,1.5287,1.5197,1.5301,1.5318,1.5353,1.5452,1.5466,1.5406,1.5408,1.5547,1.5561,1.5574,1.5637,1.5629,1.5635,1.5639,1.5806,1.5807,1.5808,0,0,0,0,0,0,1.5088,1.5107,1.5273,1.5205,1.5228,1.5305,1.5343,1.5356,1.5386,1.5467,1.5482,1.5422,1.5547,1.5565,1.563,1.5644,1.5638,1.5644,1.5805,1.5806,1.5807,1.5763,0,0,0,0,0,0,1.5082,1.5104,1.5121,1.5205,1.5231,1.5323,1.5343,1.5359,1.5396,1.54,1.5486,1.55,1.5548,1.562,1.5636,1.5652,1.5649,1.5804,1.5806,1.5807,1.5764,1.5762,1.5761,0,0,0,0,0,1.5074,1.5103,1.5121,1.514,1.5253,1.5324,1.5339,1.5392,1.5397,1.5415,1.5469,1.5498,1.5639,1.5626,1.5645,1.5663,1.5804,1.5805,1.5807,1.5764,1.5763,1.5761,0,0,0,0,0,0,1.502,1.5115,1.5136,1.5193,1.525,1.5334,1.5359,1.5388,1.5446,1.5448,1.5513,1.5532,1.5592,1.5635,1.5618,1.5716,1.5724,1.573,1.5685,1.5685,1.5684,1.5672,1.5654,0,0,0,0,0,1.5014,1.5061,1.5143,1.5186,1.5213,1.5281,1.5314,1.535,1.5412,1.5437,1.5495,1.5556,1.5616,1.5653,1.5711,1.5771,1.5792,1.5793,1.5792,1.579,1.5794,1.5832,1.5834,1.5813,1.5813,1.5813,0,0,1.5003,1.5061,1.5087,1.5176,1.5225,1.5275,1.5301,1.5353,1.5392,1.5446,1.551,1.5556,1.5629,1.5692,1.5723,1.5729,1.5805,1.5792,1.5791,1.5796,1.5834,1.5836,1.5838,1.5814,1.5813,1.5813,0,0,1.5009,1.5057,1.5099,1.5147,1.5219,1.5265,1.5275,1.5357,1.5388,1.5454,1.5496,1.5546,1.5645,1.5696,1.5735,1.5764,1.5794,1.5782,1.5776,1.5812,1.5813,1.5815,1.5827,1.5831,1.5786,1.5785,1.5785,0,1.4987,1.5062,1.5117,1.5167,1.5206,1.5257,1.5301,1.5346,1.5435,1.5462,1.5468,1.5595,1.5648,1.5725,1.5732,1.5762,1.5778,1.5772,1.5808,1.5811,1.5813,1.5826,1.583,1.5784,1.5784,1.5784,1.5784,0,1.5033,1.5085,1.511,1.5193,1.5236,1.5283,1.5347,1.5384,1.5418,1.5464,1.5532,1.5598,1.5672,1.5693,1.5726,1.5776,1.5778,1.5795,1.5805,1.5812,1.5825,1.583,1.5781,1.5781,1.5782,1.5782,0,0,1.5006,1.512,1.5129,1.5168,1.5254,1.5297,1.5348,1.5419,1.545,1.5511,1.5557,1.5642,1.5659,1.5703,1.5743,1.5775,1.5797,1.5789,1.5792,1.5789,1.5859,1.5845,1.5849,1.5817,1.5819,1.5819,1.5853,0,1.5024,1.5115,1.5167,1.5238,1.5289,1.534,1.5385,1.5444,1.5489,1.5541,1.5593,1.5652,1.5669,1.5697,1.573,1.5786,1.5812,1.5785,1.5863,1.5865,1.5843,1.5856,1.5841,1.5869,1.5858,1.5859,1.5859,0,1.5057,1.5115,1.519,1.5273,1.5296,1.5335,1.5406,1.5454,1.5524,1.5556,1.5606,1.5647,1.5706,1.5712,1.5797,1.5777,1.5814,1.5846,1.5849,1.5858,1.5862,1.5866,1.5879,1.5883,1.5868,1.5867,1.5866,0,1.5031,1.5129,1.5187,1.522,1.5317,1.5344,1.5386,1.5455,1.5496,1.5559,1.5586,1.5656,1.5694,1.5749,1.5809,1.5807,1.5888,1.5899,1.5918,1.5917,1.5932,1.593,1.5951,1.5955,1.5955,1.5955,1.5955,0,1.5046,1.509,1.5177,1.5213,1.5266,1.5328,1.5379,1.5426,1.5488,1.5536,1.5585,1.563,1.5706,1.5761,1.5809,1.5873,1.589,1.5919,1.5931,1.5914,1.5911,1.5938,1.5938,1.5956,1.5956,1.5955,1.5955,0,1.5025,1.5085,1.5152,1.5239,1.5263,1.5298,1.5374,1.5413,1.5462,1.5522,1.554,1.5618,1.5686,1.5751,1.5842,1.5875,1.5939,1.5955,1.5915,1.5922,1.5938,1.5935,1.5977,1.5987,1.5983,1.5983,1.5983,0,1.503,1.5065,1.5157,1.5192,1.5232,1.5288,1.533,1.5394,1.5436,1.552,1.5549,1.562,1.568,1.5787,1.5854,1.5925,1.5943,1.5953,1.5954,1.5937,1.5945,1.5942,1.5947,1.5951,1.5951,1.5951,1.5951,0,1.5033,1.5062,1.5118,1.5187,1.5234,1.5292,1.5351,1.5378,1.5454,1.5499,1.5568,1.5615,1.5709,1.578,1.5859,1.5906,1.5942,1.595,1.5959,1.5942,1.5917,1.5932,1.5911,1.5949,1.5949,1.5949,1.5949,1.5949,1.5026,1.5061,1.5131,1.5194,1.5245,1.53,1.5341,1.5396,1.5454,1.5534,1.5569,1.564,1.5713,1.5823,1.587,1.5928,1.5937,1.5949,1.5952,1.5954,1.5951,1.5908,1.5943,1.5943,1.5943,1.5944,1.5944,0,1.5033,1.5081,1.5138,1.5219,1.5269,1.5298,1.5366,1.5407,1.5467,1.5532,1.559,1.5672,1.5742,1.5815,1.589,1.5923,1.5942,1.5941,1.5939,1.595,1.5938,1.5924,1.5925,1.5925,1.5925,1.5925,1.5925,1.5925,1.5042,1.5103,1.514,1.5229,1.5278,1.5346,1.5383,1.5435,1.5487,1.5575,1.5633,1.568,1.5749,1.583,1.5897,1.5917,1.5943,1.5937,1.5962,1.595,1.5951,1.5951,1.5938,1.5942,1.5942,1.5969,1.597,1.597]},{"header":{"parameterUnit":"m.s-1","parameterCategory":1,"la1":30.2991,"la2":30.254,"lo1":-89.0895,"lo2":-89.0444,"dy":0.0017,"dx":0.0017,"nx":28,"ny":28,"refTime":"2024-05-13T03:00:00:Z","depth":0,"parameterNumber":3,"parameterNumberName":"V-component_of_WINDS"},"data":[0,0,0,0,0,0,0,0,0,0,0,0,0,0,0,0,0,0,0,0,0,0,0,0,0,0,0,0,0,0,0,0,0,0,0,0,0,0,0,0,0,0,0,0,0,0,0,0,0,0,0,0,0,0,0,0,0,0,2.2521,2.2523,0,2.2626,2.2627,2.2628,2.2653,2.2652,2.2651,2.2651,2.2753,2.2756,2.2759,0,0,0,0,0,0,0,0,0,0,0,0,0,2.2338,2.2341,2.2521,2.2523,2.2524,2.2626,2.2627,2.2629,2.2653,2.2652,2.2651,2.265,2.2751,2.2755,2.2759,0,0,0,0,0,0,0,0,0,0,0,0,0,2.2427,2.2342,2.2521,2.2549,2.2552,2.2626,2.2627,2.2629,2.2653,2.2652,2.2651,2.265,2.275,2.2755,2.276,2.2812,0,0,2.2775,2.2778,0,0,0,0,0,0,0,0,2.2422,2.2434,2.2543,2.2547,2.2551,2.2625,2.26,2.269,2.2653,2.2615,2.2651,2.265,2.2711,2.2719,2.2741,2.2817,2.2821,2.2776,2.2779,2.2781,2.2783,0,0,0,0,0,0,0,2.2416,2.243,2.2563,2.2545,2.2549,2.2554,2.2566,2.2617,2.2667,2.2618,2.262,2.2632,2.2713,2.2736,2.2743,2.2823,2.2776,2.278,2.2783,2.2785,2.2947,2.2948,0,0,0,0,0,0,2.2406,2.2424,2.2559,2.2566,2.2483,2.2558,2.2571,2.2602,2.2667,2.2676,2.2633,2.2633,2.2728,2.2737,2.2747,2.2813,2.2781,2.2786,2.2789,2.2946,2.2947,2.2949,0,0,0,0,0,0,2.2402,2.2418,2.2555,2.2496,2.2514,2.2563,2.2597,2.2605,2.2628,2.2678,2.2687,2.2648,2.2727,2.274,2.2796,2.2817,2.2788,2.2793,2.2944,2.2946,2.2948,2.2945,0,0,0,0,0,0,2.2396,2.2416,2.2438,2.2496,2.2517,2.2604,2.2599,2.2608,2.2638,2.2639,2.2694,2.2703,2.2727,2.2789,2.2801,2.2823,2.2797,2.2943,2.2945,2.2948,2.2944,2.2947,2.2949,0,0,0,0,0,2.239,2.2431,2.2439,2.2455,2.2545,2.2605,2.2617,2.2646,2.2639,2.2661,2.2693,2.2701,2.2812,2.2794,2.2809,2.2833,2.2942,2.2945,2.2947,2.2942,2.2946,2.2949,0,0,0,0,0,0,2.2372,2.2439,2.2448,2.251,2.2552,2.2609,2.2637,2.2649,2.2692,2.2691,2.2724,2.2736,2.2791,2.2817,2.2796,2.2886,2.2877,2.2882,2.2868,2.2872,2.2875,2.2868,2.2801,0,0,0,0,0,2.2375,2.242,2.2476,2.2525,2.2546,2.2588,2.2615,2.2634,2.2678,2.2696,2.2732,2.2773,2.2817,2.2846,2.2889,2.2947,2.296,2.297,2.2973,2.2975,2.298,2.3014,2.3019,2.2958,2.2958,2.2958,0,0,2.2382,2.2425,2.2451,2.2523,2.2558,2.2602,2.2603,2.265,2.2683,2.2702,2.2759,2.2786,2.2834,2.2892,2.2919,2.2915,2.3,2.2979,2.298,2.2984,2.3017,2.3023,2.3028,2.296,2.296,2.296,0,0,2.2419,2.2455,2.2501,2.2536,2.259,2.2617,2.2628,2.2684,2.2704,2.2761,2.2777,2.2816,2.2891,2.2925,2.2952,2.3001,2.3011,2.3014,2.303,2.3062,2.3066,2.3071,2.3089,2.3096,2.3019,2.3019,2.3019,0,2.2421,2.2491,2.2522,2.257,2.2601,2.2622,2.2668,2.27,2.2763,2.2784,2.2779,2.2875,2.2908,2.2975,2.2987,2.3008,2.3021,2.3009,2.3063,2.3068,2.3073,2.3091,2.3098,2.3019,2.3019,2.3019,2.3019,0,2.2491,2.2539,2.2569,2.2633,2.2667,2.2713,2.275,2.278,2.2796,2.2824,2.2882,2.2923,2.2975,2.2992,2.3007,2.3061,2.3057,2.3057,2.3048,2.3078,2.3096,2.3103,2.3019,2.3019,2.3019,2.3019,0,0,2.2519,2.2601,2.2611,2.2641,2.2701,2.2738,2.2785,2.2838,2.2864,2.2906,2.2946,2.301,2.3011,2.3042,2.306,2.3088,2.3126,2.3085,2.3087,2.3092,2.3188,2.3189,2.3196,2.3132,2.3133,2.3134,2.3185,0,2.2564,2.2651,2.2681,2.2752,2.2796,2.2817,2.2857,2.2898,2.2925,2.2965,2.2994,2.3039,2.3037,2.3056,2.3084,2.3115,2.3146,2.3112,2.3169,2.317,2.3158,2.3205,2.3206,2.3251,2.3191,2.3193,2.3193,0,2.2629,2.2675,2.2751,2.2807,2.2827,2.2863,2.2914,2.2953,2.2999,2.3016,2.3051,2.3068,2.3116,2.3103,2.317,2.3146,2.3171,2.3189,2.3192,2.3199,2.3185,2.3215,2.3266,2.3273,2.3204,2.3203,2.3203,0,2.2644,2.2724,2.2781,2.2805,2.2871,2.2896,2.2924,2.297,2.3,2.3044,2.3064,2.3112,2.3139,2.3175,2.3204,2.3192,2.3268,2.3258,2.3284,2.3283,2.33,2.3299,2.3357,2.3313,2.3313,2.3313,2.3313,0,2.2691,2.2737,2.2789,2.2824,2.2875,2.2908,2.2958,2.2987,2.3027,2.3067,2.3086,2.3122,2.3158,2.3199,2.3221,2.3273,2.3284,2.33,2.3305,2.3299,2.3297,2.3316,2.3315,2.3315,2.3315,2.3314,2.3314,0,2.2717,2.2754,2.2817,2.2875,2.289,2.2926,2.2974,2.3008,2.3036,2.3086,2.3099,2.3142,2.3191,2.3223,2.3285,2.33,2.3357,2.3361,2.3343,2.3346,2.3371,2.3369,2.3445,2.3457,2.3403,2.3404,2.3404,0,2.2746,2.2783,2.2845,2.2874,2.2903,2.2949,2.2981,2.3014,2.3046,2.3101,2.3128,2.3179,2.3221,2.3298,2.3334,2.3381,2.3388,2.3411,2.3395,2.3387,2.3389,2.3388,2.3392,2.3414,2.3414,2.3415,2.3415,0,2.2794,2.2811,2.2857,2.2909,2.2947,2.2989,2.3032,2.3054,2.3094,2.3128,2.318,2.3213,2.3277,2.3327,2.3378,2.3405,2.3417,2.342,2.3428,2.3423,2.3411,2.3419,2.3351,2.3418,2.3418,2.3417,2.3417,2.3417,2.2824,2.2857,2.2907,2.2957,2.2993,2.3032,2.3067,2.31,2.3144,2.3201,2.3217,2.3271,2.3315,2.3385,2.3413,2.3455,2.3452,2.3464,2.3468,2.3471,2.3472,2.3404,2.3464,2.3464,2.3464,2.3464,2.3463,0,2.2874,2.2907,2.2953,2.3013,2.3052,2.3061,2.3108,2.3141,2.3189,2.323,2.3272,2.3331,2.338,2.3419,2.3469,2.3495,2.3502,2.3507,2.3506,2.3512,2.3471,2.3459,2.3501,2.3501,2.3501,2.3501,2.3501,2.3501,2.2905,2.2962,2.2985,2.306,2.3092,2.3147,2.3173,2.3209,2.3243,2.3309,2.335,2.3376,2.3417,2.347,2.3515,2.3525,2.3543,2.3547,2.3559,2.3519,2.3515,2.3511,2.35,2.3551,2.3551,2.3597,2.3598,2.3598]}]]